DW0435 Weather Reports


Display with metric or nautical units.
time (UTC)temp
F
wind
direction
speed
MPH
gust
MPH
rain 1hr
in
rain 24hr
in
rain mn
in
humidity
%
barometer
mb
20260505062559 74 38 0.0 2.0 0.00 0.00 0.00 86 1013.2
20260505062058 74 136 0.0 2.0 0.00 0.00 0.00 85 1013.2
20260505062000 74 136 1.0 2.0 0.00 0.00 0.00 85 1013.4
20260505061607 75 136 0.0 0.0 0.00 0.00 0.00 84 1013.2
20260505061501 75 136 0.0 0.0 0.00 0.00 0.00 84 1013.5
20260505061058 75 136 0.0 0.0 0.00 0.00 0.00 85 1013.3
20260505060558 74 136 0.0 0.0 0.00 0.00 0.00 85 1013.3
20260505060459 74 136 0.0 2.0 0.00 0.00 0.00 85 1013.6
20260505060100 74 136 0.0 2.0 0.00 0.00 0.00 86 1013.4
20260505060006 74 136 0.0 2.0 0.00 0.00 0.00 86 1013.7
20260505055559 74 153 0.0 2.0 0.00 0.00 0.00 86 1013.4
20260505055508 74 32 0.0 2.0 0.00 0.00 0.00 87 1013.7
20260505055059 74 32 1.0 2.0 0.00 0.00 0.00 87 1013.5
20260505054700 74 32 0.0 1.0 0.00 0.00 0.00 87 1013.5
20260505054500 74 32 0.0 0.0 0.00 0.00 0.00 87 1013.8
20260505054100 74 32 0.0 0.0 0.00 0.00 0.00 87 1013.6
20260505053558 74 32 0.0 0.0 0.00 0.00 0.00 87 1013.6
20260505053500 74 32 0.0 0.0 0.00 0.00 0.00 87 1013.9
20260505053158 74 32 0.0 0.0 0.00 0.00 0.00 87 1013.6
20260505053000 74 32 0.0 1.0 0.00 0.00 0.00 86 1013.9
20260505052602 74 32 0.0 2.0 0.00 0.00 0.00 86 1013.7
20260505052059 74 32 0.0 2.0 0.00 0.00 0.00 86 1013.9
20260505052000 74 32 1.0 2.0 0.00 0.00 0.00 86 1014.1
20260505051559 74 32 0.0 2.0 0.00 0.00 0.00 86 1013.9
20260505051059 74 32 0.0 2.0 0.00 0.00 0.00 86 1014.0
20260505050558 74 32 0.0 3.0 0.00 0.00 0.00 85 1014.0
20260505050501 74 32 1.0 3.0 0.00 0.00 0.00 85 1014.3
20260505041559 75 92 0.0 4.0 0.00 0.00 0.00 86 1014.4
20260505041059 74 53 2.0 4.0 0.00 0.00 0.00 86 1014.5
20260505041001 75 98 2.0 4.0 0.00 0.00 0.00 86 1014.7
20260505040604 75 107 2.0 4.0 0.00 0.00 0.00 86 1014.5
20260505040104 75 25 2.0 3.0 0.00 0.00 0.00 85 1014.6
20260505035508 75 48 1.0 3.0 0.00 0.00 0.00 86 1014.6
20260505035504 75 48 1.0 3.0 0.00 0.00 0.00 86 1014.8
20260505035003 75 59 2.0 3.0 0.00 0.00 0.00 86 1015.0
20260505034501 75 43 1.0 3.0 0.00 0.00 0.00 85 1014.8
20260505034003 75 58 3.0 3.0 0.00 0.00 0.00 85 1015.0
20260505034001 75 58 2.0 3.0 0.00 0.00 0.00 85 1014.8
20260505033503 75 91 1.0 3.0 0.00 0.00 0.00 86 1015.0
20260505033003 75 104 1.0 2.0 0.00 0.00 0.00 86 1014.8
20260505032502 76 104 0.0 2.0 0.00 0.00 0.00 86 1014.8
20260505032003 76 104 1.0 2.0 0.00 0.00 0.00 86 1015.2
20260505032001 76 104 0.0 2.0 0.00 0.00 0.00 86 1014.9
20260505031601 76 104 1.0 3.0 0.00 0.00 0.00 86 1015.0
20260505031003 76 96 2.0 3.0 0.00 0.00 0.00 87 1015.3
20260505031001 76 96 0.0 3.0 0.00 0.00 0.00 87 1015.0
20260505030503 76 44 0.0 0.0 0.00 0.00 0.00 87 1015.3
20260505030006 76 44 0.0 1.0 0.00 0.00 0.00 87 1015.3
20260505025502 76 44 0.0 1.0 0.00 0.00 0.00 86 1015.3
20260505025003 76 94 0.0 0.0 0.00 0.00 0.00 87 1015.3
20260505024510 76 17 0.0 0.0 0.00 0.00 0.00 87 1015.3
20260505024503 76 17 0.0 0.0 0.00 0.00 0.00 87 1015.1
20260505024003 76 17 0.0 0.0 0.00 0.00 0.00 87 1015.0
20260505023502 76 26 0.0 2.0 0.00 0.00 0.00 87 1015.2
20260505023010 76 26 0.0 2.0 0.00 0.00 0.00 87 1015.2
20260505023001 76 26 0.0 2.0 0.00 0.00 0.00 87 1014.9
20260505022504 77 26 2.0 2.0 0.00 0.00 0.00 87 1015.2
20260505022004 77 325 2.0 2.0 0.00 0.00 0.00 87 1015.1
20260505022002 77 325 1.0 2.0 0.00 0.00 0.00 87 1014.9
20260505021601 77 325 1.0 2.0 0.00 0.00 0.00 86 1014.8
20260505021003 77 324 0.0 2.0 0.00 0.00 0.00 86 1015.0
20260505020502 77 324 1.0 2.0 0.00 0.00 0.00 85 1014.9
20260505020001 77 324 0.0 1.0 0.00 0.00 0.00 85 1014.6
20260505015502 78 324 0.0 1.0 0.00 0.00 0.00 85 1014.8
20260505015001 78 324 0.0 1.0 0.00 0.00 0.00 85 1014.6
20260505014510 77 324 0.0 2.0 0.00 0.00 0.00 85 1014.7
20260505014505 77 324 0.0 2.0 0.00 0.00 0.00 85 1014.5
20260505014004 78 324 0.0 2.0 0.00 0.00 0.00 85 1014.7
20260505013502 78 325 0.0 2.0 0.00 0.00 0.00 84 1014.4
20260505013002 78 325 0.0 0.0 0.00 0.00 0.00 84 1014.3
20260505012502 78 325 0.0 2.0 0.00 0.00 0.00 83 1014.5
20260505012003 78 325 1.0 2.0 0.00 0.00 0.00 83 1014.3
20260505011603 79 325 1.0 2.0 0.00 0.00 0.00 82 1014.1
20260505011002 79 54 0.0 1.0 0.00 0.00 0.00 82 1014.3
20260505010503 79 54 0.0 3.0 0.00 0.00 0.00 82 1014.4
20260505010501 79 54 0.0 3.0 0.00 0.00 0.00 82 1014.1
20260505010006 80 54 1.0 3.0 0.00 0.00 0.00 81 1014.2
20260505005502 80 54 2.0 3.0 0.00 0.00 0.00 80 1014.2
20260505005002 80 54 1.0 3.0 0.00 0.00 0.00 79 1014.1
20260505004602 80 74 1.0 3.0 0.00 0.00 0.00 79 1013.7
20260505004003 80 64 1.0 3.0 0.00 0.00 0.00 79 1013.7
20260505003507 80 68 1.0 3.0 0.00 0.00 0.00 78 1013.7
20260505003501 80 68 0.0 3.0 0.00 0.00 0.00 78 1014.0
20260505003104 81 81 1.0 3.0 0.00 0.00 0.00 78 1013.7
20260505002502 81 81 1.0 2.0 0.00 0.00 0.00 77 1013.7
20260505002003 81 360 0.0 3.0 0.00 0.00 0.00 76 1013.9
20260505001601 82 65 0.0 3.0 0.00 0.00 0.00 76 1013.6
20260505001002 82 360 1.0 4.0 0.00 0.00 0.00 74 1013.6
20260505000502 83 360 1.0 4.0 0.00 0.00 0.00 74 1013.8
20260505000104 83 360 1.0 4.0 0.00 0.00 0.00 73 1013.5
20260504235504 83 360 0.0 4.0 0.00 0.00 0.00 73 1013.8
20260504235005 83 360 3.0 5.0 0.00 0.00 0.00 73 1013.7
20260504235002 83 360 3.0 5.0 0.00 0.00 0.00 73 1013.5
20260504234502 83 198 3.0 5.0 0.00 0.00 0.00 72 1013.4
20260504234005 83 360 4.0 6.0 0.00 0.00 0.00 72 1013.7
20260504234003 83 360 3.0 6.0 0.00 0.00 0.00 72 1013.4
20260504233502 83 360 2.0 5.0 0.00 0.00 0.00 71 1013.4
20260504233103 83 178 2.0 5.0 0.00 0.00 0.00 71 1013.4
20260504232504 83 131 4.0 7.0 0.00 0.00 0.00 71 1013.6
20260504232502 83 131 3.0 7.0 0.00 0.00 0.00 71 1013.3
20260504232002 84 165 3.0 8.0 0.00 0.00 0.00 70 1013.4
20260504231511 84 133 2.0 8.0 0.00 0.00 0.00 70 1013.6
20260504231506 84 133 4.0 8.0 0.00 0.00 0.00 70 1013.3
20260504231003 84 360 5.0 7.0 0.00 0.00 0.00 69 1013.5
20260504230504 84 154 3.0 5.0 0.00 0.00 0.00 69 1013.6
20260504230502 84 154 2.0 5.0 0.00 0.00 0.00 69 1013.3
20260504230005 84 127 2.0 5.0 0.00 0.00 0.00 68 1013.3
20260504225504 85 121 2.0 5.0 0.00 0.00 0.00 68 1013.2
20260504225002 85 131 0.0 6.0 0.00 0.00 0.00 67 1013.5
20260504224608 85 148 3.0 8.0 0.00 0.00 0.00 67 1013.2
20260504224002 85 128 3.0 8.0 0.00 0.00 0.00 67 1013.4
20260504223504 85 127 3.0 8.0 0.00 0.00 0.00 66 1013.3
20260504223502 85 127 4.0 8.0 0.00 0.00 0.00 66 1013.0
20260504223101 85 141 2.0 9.0 0.00 0.00 0.00 66 1013.0
20260504222502 85 142 4.0 9.0 0.00 0.00 0.00 66 1013.2
20260504222500 85 142 3.0 9.0 0.00 0.00 0.00 66 1013.0
20260504222002 85 89 4.0 9.0 0.00 0.00 0.00 65 1012.9
20260504221501 85 107 4.0 8.0 0.00 0.00 0.00 66 1012.8
20260504221003 85 92 3.0 10.0 0.00 0.00 0.00 66 1013.0
20260504221001 85 92 3.0 10.0 0.00 0.00 0.00 66 1012.7
20260504220502 85 118 4.0 10.0 0.00 0.00 0.00 65 1013.0
20260504220101 85 118 5.0 10.0 0.00 0.00 0.00 65 1012.7
20260504215601 86 132 5.0 12.0 0.00 0.00 0.00 65 1012.6
20260504215502 86 131 4.0 12.0 0.00 0.00 0.00 64 1012.8
20260504215059 86 130 2.0 9.0 0.00 0.00 0.00 65 1012.5
20260504214604 85 127 5.0 10.0 0.00 0.00 0.00 65 1012.5
20260504214100 86 130 5.0 10.0 0.00 0.00 0.00 65 1012.5
20260504214000 86 104 3.0 10.0 0.00 0.00 0.00 65 1012.7
20260504213502 86 87 4.0 10.0 0.00 0.00 0.00 65 1012.7
20260504213105 86 102 4.0 8.0 0.00 0.00 0.00 64 1012.3
20260504213009 86 107 8.0 8.0 0.00 0.00 0.00 63 1012.6
20260504212559 86 123 4.0 10.0 0.00 0.00 0.00 63 1012.3
20260504212501 86 111 4.0 12.0 0.00 0.00 0.00 63 1012.6
20260504212002 86 144 3.0 12.0 0.00 0.00 0.00 63 1012.6
20260504211605 86 101 6.0 12.0 0.00 0.00 0.00 62 1012.4
20260504211059 86 147 5.0 12.0 0.00 0.00 0.00 63 1012.3
20260504211002 87 86 8.0 12.0 0.00 0.00 0.00 63 1012.5
20260504211000 87 86 5.0 12.0 0.00 0.00 0.00 63 1012.3
20260504210602 87 107 5.0 15.0 0.00 0.00 0.00 65 1012.3
20260504210502 86 131 3.0 15.0 0.00 0.00 0.00 65 1012.5
20260504210106 86 127 8.0 15.0 0.00 0.00 0.00 64 1012.3
20260504210001 87 114 8.0 15.0 0.00 0.00 0.00 64 1012.3
20260504205503 87 168 6.0 11.0 0.00 0.00 0.00 63 1012.3
20260504205002 88 98 6.0 11.0 0.00 0.00 0.00 63 1012.4
20260504205000 88 98 5.0 11.0 0.00 0.00 0.00 63 1012.2
20260504204639 87 95 5.0 11.0 0.00 0.00 0.00 63 1012.2
20260504204002 88 159 5.0 15.0 0.00 0.00 0.00 61 1012.2
20260504203502 88 134 3.0 15.0 0.00 0.00 0.00 61 1012.5
20260504203102 88 94 4.0 10.0 0.00 0.00 0.00 60 1012.2
20260504202502 88 182 4.0 12.0 0.00 0.00 0.00 59 1012.5
20260504202005 88 151 4.0 12.0 0.00 0.00 0.00 58 1012.5
20260504202003 88 151 5.0 12.0 0.00 0.00 0.00 58 1012.2
20260504201602 89 169 5.0 11.0 0.00 0.00 0.00 58 1012.3
20260504201004 89 107 5.0 12.0 0.00 0.00 0.00 58 1012.3
20260504200501 88 153 4.0 14.0 0.00 0.00 0.00 58 1012.2
20260504200009 89 162 7.0 16.0 0.00 0.00 0.00 58 1012.3
20260504200004 89 162 5.0 16.0 0.00 0.00 0.00 58 1012.5
20260504195559 88 101 7.0 16.0 0.00 0.00 0.00 57 1012.3
20260504195501 88 106 7.0 15.0 0.00 0.00 0.00 57 1012.6
20260504195200 88 204 4.0 11.0 0.00 0.00 0.00 57 1012.3
20260504195001 88 114 7.0 12.0 0.00 0.00 0.00 57 1012.6
20260504194600 88 128 5.0 15.0 0.00 0.00 0.00 56 1012.4
20260504194103 89 146 6.0 15.0 0.00 0.00 0.00 56 1012.4
20260504194001 89 127 7.0 15.0 0.00 0.00 0.00 55 1012.6
20260504193601 88 143 7.0 15.0 0.00 0.00 0.00 56 1012.5
20260504193501 88 168 7.0 15.0 0.00 0.00 0.00 55 1012.7
20260504193100 89 122 8.0 15.0 0.00 0.00 0.00 56 1012.5
20260504193008 89 167 9.0 15.0 0.00 0.00 0.00 56 1012.7
20260504192559 89 121 7.0 12.0 0.00 0.00 0.00 56 1012.5
20260504192501 89 133 8.0 15.0 0.00 0.00 0.00 56 1012.7
20260504192005 88 189 5.0 15.0 0.00 0.00 0.00 57 1012.5
20260504192003 88 189 7.0 15.0 0.00 0.00 0.00 57 1012.8
20260504191600 88 113 8.0 14.0 0.00 0.00 0.00 57 1012.6
20260504191101 88 119 8.0 13.0 0.00 0.00 0.00 58 1012.6
20260504191001 89 118 7.0 13.0 0.00 0.00 0.00 58 1012.9
20260504190702 89 157 6.0 15.0 0.00 0.00 0.00 58 1012.6
20260504185600 88 131 7.0 18.0 0.00 0.00 0.00 58 1012.5
20260504185501 88 120 8.0 18.0 0.00 0.00 0.00 58 1012.8
20260504185001 88 133 3.0 15.0 0.00 0.00 0.00 57 1012.9
20260504184606 89 140 8.0 16.0 0.00 0.00 0.00 56 1012.8
20260504184100 89 129 8.0 16.0 0.00 0.00 0.00 57 1012.8
20260504183600 88 132 9.0 16.0 0.00 0.00 0.00 57 1012.7
20260504183501 88 127 13.0 17.0 0.00 0.00 0.00 57 1013.0
20260504183102 88 124 8.0 17.0 0.00 0.00 0.00 57 1012.8
20260504182600 90 105 7.0 17.0 0.00 0.00 0.00 54 1012.8
20260504182500 90 107 11.0 16.0 0.00 0.00 0.00 55 1013.1
20260504182059 89 112 7.0 18.0 0.00 0.00 0.00 55 1012.9
20260504182001 89 102 6.0 18.0 0.00 0.00 0.00 55 1013.1
20260504181600 89 103 9.0 18.0 0.00 0.00 0.00 54 1012.8
20260504181103 90 43 8.0 16.0 0.00 0.00 0.00 53 1012.9
20260504181003 90 126 12.0 16.0 0.00 0.00 0.00 54 1013.1
20260504180601 90 146 10.0 18.0 0.00 0.00 0.00 53 1013.0
20260504180501 90 121 12.0 18.0 0.00 0.00 0.00 53 1013.2
20260504180100 90 141 7.0 18.0 0.00 0.00 0.00 53 1013.0
20260504175604 90 142 7.0 17.0 0.00 0.00 0.00 52 1013.0
20260504175501 90 117 14.0 17.0 0.00 0.00 0.00 52 1013.3
20260504175003 90 124 9.0 21.0 0.00 0.00 0.00 53 1013.3
20260504175001 90 124 6.0 21.0 0.00 0.00 0.00 53 1013.0
20260504174600 90 87 8.0 21.0 0.00 0.00 0.00 51 1013.1
20260504174101 90 113 8.0 17.0 0.00 0.00 0.00 51 1013.0
20260504174002 90 152 8.0 20.0 0.00 0.00 0.00 51 1013.1
20260504173559 90 94 8.0 20.0 0.00 0.00 0.00 51 1013.2
20260504173501 90 38 13.0 20.0 0.00 0.00 0.00 51 1013.4
20260504173102 91 69 9.0 20.0 0.00 0.00 0.00 49 1013.3
20260504172602 91 76 7.0 15.0 0.00 0.00 0.00 49 1013.3
20260504172502 91 135 5.0 16.0 0.00 0.00 0.00 49 1013.6
20260504172100 91 141 6.0 17.0 0.00 0.00 0.00 49 1013.3
20260504172002 91 169 11.0 17.0 0.00 0.00 0.00 49 1013.7
20260504171559 90 97 8.0 19.0 0.00 0.00 0.00 49 1013.4
20260504171100 90 47 11.0 19.0 0.00 0.00 0.00 48 1013.6
20260504171000 90 110 12.0 19.0 0.00 0.00 0.00 49 1013.8
20260504170659 90 126 8.0 19.0 0.00 0.00 0.00 48 1013.7
20260504151059 89 113 9.0 19.0 0.00 0.00 0.00 51 1014.1
20260504151001 89 125 9.0 19.0 0.00 0.00 0.00 52 1014.3
20260504150602 89 68 11.0 19.0 0.00 0.00 0.00 54 1014.2
20260504150502 89 113 15.0 18.0 0.00 0.00 0.00 54 1014.4
20260504150106 89 108 11.0 18.0 0.00 0.00 0.00 56 1014.1
20260504141102 88 136 8.0 19.0 0.00 0.00 0.00 56 1014.4
20260504141001 88 119 5.0 19.0 0.00 0.00 0.00 56 1014.6
20260504140659 87 127 12.0 19.0 0.00 0.00 0.00 55 1014.4
20260504130603 85 44 8.0 17.0 0.00 0.00 0.00 64 1014.2
20260504130501 85 119 8.0 17.0 0.00 0.00 0.00 64 1014.4
20260504110600 73 51 0.0 0.0 0.00 0.00 0.00 86 1014.4
20260504110502 73 46 0.0 0.0 0.00 0.00 0.00 86 1014.6
20260504100602 70 80 0.0 0.0 0.00 0.00 0.00 91 1014.0
20260504100501 70 80 0.0 0.0 0.00 0.00 0.00 92 1014.2
20260504082001 71 80 0.0 0.0 0.00 0.00 0.00 91 1013.6
20260504081601 71 80 0.0 0.0 0.00 0.00 0.00 90 1013.5
20260504081503 71 80 0.0 0.0 0.00 0.00 0.00 90 1013.7
20260504081100 71 80 0.0 0.0 0.00 0.00 0.00 91 1013.4
20260504080559 71 80 0.0 0.0 0.00 0.00 0.00 91 1013.3
20260504080501 71 80 0.0 0.0 0.00 0.00 0.00 91 1013.6
20260504070106 72 80 0.0 0.0 0.00 0.00 0.00 89 1013.2